Weather History for KASL - March, 2013

Change the Weather History Date:

Tuesday, March 5, 2013

  Actual Average (KGGG) Record (KGGG)
Temperature  
Mean Temperature 50 °F 55 °F  
Max Temperature 64 °F 67 °F 82 °F (1998)
Min Temperature 37 °F 44 °F 22 °F (1960)
Degree Days  
Heating Degree Days 14 11  
Month to date heating degree days 56  
Since 1 July heating degree days 1960  
Cooling Degree Days 0 1  
Month to date cooling degree days 5  
Year to date cooling degree days 17  
Moisture  
Dew Point 32 °F    
Average Humidity 47    
Maximum Humidity 83    
Minimum Humidity 21    
Precipitation  
Precipitation 0.00 in 0.14 in 1.78 in (1983)
Month to date precipitation 0.68  
Year to date precipitation 8.04  
Snow  
Snow 0.00 in - - ()
Month to date snowfall  
Since 1 July snowfall  
Snow Depth -    
Sea Level Pressure  
Sea Level Pressure 30.16 in    
Wind  
Wind Speed 13 mph (WNW)    
Max Wind Speed 26 mph    
Max Gust Speed 37 mph    
Visibility 10 miles    
Events      
T = Trace of Precipitation, MM = Missing Value Source: NWS Daily Summary

Daily Weather History Graph

Daily Weather History Graph

Search for Another Location

Airport or City:

Trip Planner

Search our weather history database for the weather conditions in past years. The results will help you decide how hot, cold, wet, or windy it might be!

Date:

Astronomy

Mar. 05, 2013 Rise Set
Actual Time 6:39 AM CST 6:17 PM CST
Civil Twilight 6:15 AM CST 6:42 PM CST
Nautical Twilight 5:46 AM CST 7:11 PM CST
Astronomical Twilight 5:18 AM CST 7:39 PM CST
Moon 1:38 AM CST (3/5) 12:12 PM CST (3/5)
Length of Visible Light 12h 27m
Length of Day
11h 38m
Last Quarter, 40% of the Moon is Illuminated
Mar 5
Last Quarter
Mar 11
New
Mar 19
First Quarter
Mar 27
Full
Apr 2
Last Quarter

Hourly Weather History & Observations

Time (CST) Temp. Windchill Dew Point Humidity Pressure Visibility Wind Dir Wind Speed Gust Speed Precip Events Conditions
12:15 AM 64.4 °F - 59.0 °F 83% 29.76 in 10.0 mi South 12.7 mph 18.4 mph N/A   Clear
12:35 AM 64.4 °F - 59.0 °F 83% 29.76 in 10.0 mi South 12.7 mph 20.7 mph N/A   Clear
12:55 AM 64.4 °F - 59.0 °F 83% 29.76 in 10.0 mi South 11.5 mph 17.3 mph N/A   Clear
1:15 AM 64.4 °F - 59.0 °F 83% 29.77 in 10.0 mi South 10.4 mph 18.4 mph N/A   Clear
1:35 AM 62.6 °F - 57.2 °F 82% 29.77 in 10.0 mi South 10.4 mph 16.1 mph N/A   Clear
2:15 AM 64.4 °F - 59.0 °F 83% 29.84 in 10.0 mi West 9.2 mph - N/A   Mostly Cloudy
2:35 AM 64.4 °F - 59.0 °F 83% 29.85 in 10.0 mi SW 4.6 mph - N/A   Overcast
3:15 AM 64.4 °F - 59.0 °F 83% 29.86 in 10.0 mi SW 6.9 mph - N/A   Overcast
3:35 AM 64.4 °F - 59.0 °F 83% 29.87 in 10.0 mi SSW 5.8 mph - N/A   Overcast
3:55 AM 64.4 °F - 59.0 °F 83% 29.88 in 10.0 mi SW 4.6 mph - N/A   Overcast
4:15 AM 62.6 °F - 46.4 °F 55% 29.90 in 10.0 mi NW 16.1 mph 28.8 mph N/A   Overcast
4:55 AM 57.2 °F - 39.2 °F 51% 29.97 in 10.0 mi NW 26.5 mph 36.8 mph N/A   Overcast
5:15 AM 51.8 °F - 37.4 °F 58% 30.00 in 10.0 mi NW 17.3 mph 28.8 mph N/A   Mostly Cloudy
5:35 AM 51.8 °F - 37.4 °F 58% 30.01 in 10.0 mi NW 19.6 mph 25.3 mph N/A   Scattered Clouds
5:55 AM 51.8 °F - 37.4 °F 58% 30.04 in 10.0 mi NW 16.1 mph 28.8 mph N/A   Clear
6:15 AM 50.0 °F - 35.6 °F 58% 30.06 in 10.0 mi WNW 15.0 mph 23.0 mph N/A   Scattered Clouds
6:35 AM 50.0 °F - 35.6 °F 58% 30.07 in 10.0 mi NW 13.8 mph 29.9 mph N/A   Mostly Cloudy
6:55 AM 50.0 °F - 35.6 °F 58% 30.09 in 10.0 mi NW 10.4 mph 25.3 mph N/A   Overcast
7:15 AM 50.0 °F - 35.6 °F 58% 30.11 in 10.0 mi NNW 16.1 mph 29.9 mph N/A   Scattered Clouds
7:35 AM 50.0 °F - 35.6 °F 58% 30.13 in 10.0 mi NW 13.8 mph 17.3 mph N/A   Clear
7:55 AM 50.0 °F - 35.6 °F 58% 30.14 in 10.0 mi NW 18.4 mph 27.6 mph N/A   Clear
8:15 AM 50.0 °F - 33.8 °F 54% 30.15 in 10.0 mi NNW 15.0 mph 21.9 mph N/A   Clear
8:35 AM 50.0 °F - 33.8 °F 54% 30.17 in 10.0 mi NNW 15.0 mph 25.3 mph N/A   Clear
8:55 AM 50.0 °F - 33.8 °F 54% 30.19 in 10.0 mi NW 18.4 mph 28.8 mph N/A   Clear
9:15 AM 50.0 °F - 32.0 °F 50% 30.19 in 10.0 mi NW 13.8 mph 27.6 mph N/A   Clear
9:35 AM 51.8 °F - 33.8 °F 50% 30.19 in 10.0 mi NW 13.8 mph 31.1 mph N/A   Clear
9:55 AM 51.8 °F - 32.0 °F 47% 30.20 in 10.0 mi NW 19.6 mph 24.2 mph N/A   Clear
10:15 AM 51.8 °F - 30.2 °F 44% 30.20 in 10.0 mi NNW 20.7 mph 25.3 mph N/A   Clear
10:35 AM 51.8 °F - 32.0 °F 47% 30.21 in 10.0 mi NW 17.3 mph 21.9 mph N/A   Clear
10:55 AM 55.4 °F - 30.2 °F 38% 30.21 in 10.0 mi NW 17.3 mph 23.0 mph N/A   Clear
11:15 AM 55.4 °F - 28.4 °F 36% 30.23 in 10.0 mi WNW 16.1 mph 21.9 mph N/A   Clear
11:35 AM 55.4 °F - 30.2 °F 38% 30.23 in 10.0 mi WNW 15.0 mph 23.0 mph N/A   Clear
11:55 AM 55.4 °F - 28.4 °F 36% 30.24 in 10.0 mi WNW 15.0 mph 23.0 mph N/A   Clear
12:15 PM 55.4 °F - 26.6 °F 33% 30.23 in 10.0 mi WNW 17.3 mph 24.2 mph N/A   Clear
12:35 PM 55.4 °F - 24.8 °F 31% 30.23 in 10.0 mi NNW 20.7 mph 26.5 mph N/A   Clear
12:55 PM 55.4 °F - 28.4 °F 36% 30.22 in 10.0 mi WNW 18.4 mph 24.2 mph N/A   Clear
1:15 PM 57.2 °F - 26.6 °F 31% 30.22 in 10.0 mi WNW 19.6 mph 25.3 mph N/A   Clear
1:35 PM 57.2 °F - 26.6 °F 31% 30.21 in 10.0 mi WNW 16.1 mph 23.0 mph N/A   Clear
1:55 PM 57.2 °F - 26.6 °F 31% 30.21 in 10.0 mi WNW 12.7 mph 24.2 mph N/A   Clear
2:15 PM 57.2 °F - 26.6 °F 31% 30.21 in 10.0 mi WNW 13.8 mph 26.5 mph N/A   Clear
2:35 PM 57.2 °F - 24.8 °F 29% 30.22 in 10.0 mi NW 18.4 mph 25.3 mph N/A   Clear
2:55 PM 59.0 °F - 24.8 °F 27% 30.21 in 10.0 mi NW 17.3 mph 26.5 mph N/A   Clear
3:15 PM 57.2 °F - 21.2 °F 25% 30.22 in 10.0 mi NW 15.0 mph 24.2 mph N/A   Clear
3:35 PM 57.2 °F - 19.4 °F 23% 30.22 in 10.0 mi NW 18.4 mph 25.3 mph N/A   Clear
3:55 PM 55.4 °F - 19.4 °F 25% 30.22 in 10.0 mi NW 13.8 mph 25.3 mph N/A   Clear
4:15 PM 55.4 °F - 17.6 °F 23% 30.23 in 10.0 mi WNW 18.4 mph 24.2 mph N/A   Clear
4:35 PM 55.4 °F - 17.6 °F 23% 30.23 in 10.0 mi NW 17.3 mph 25.3 mph N/A   Clear
4:55 PM 55.4 °F - 17.6 °F 23% 30.24 in 10.0 mi WNW 12.7 mph 21.9 mph N/A   Clear
5:15 PM 55.4 °F - 15.8 °F 21% 30.24 in 10.0 mi WNW 9.2 mph - N/A   Clear
5:35 PM 55.4 °F - 17.6 °F 23% 30.25 in 10.0 mi WNW 11.5 mph - N/A   Clear
5:55 PM 53.6 °F - 17.6 °F 24% 30.25 in 10.0 mi NW 10.4 mph - N/A   Clear
6:15 PM 51.8 °F - 19.4 °F 28% 30.26 in 10.0 mi WNW 10.4 mph - N/A   Clear
6:35 PM 50.0 °F - 19.4 °F 30% 30.27 in 10.0 mi WNW 10.4 mph - N/A   Clear
6:55 PM 50.0 °F - 19.4 °F 30% 30.28 in 10.0 mi WNW 11.5 mph - N/A   Clear
7:15 PM 50.0 °F - 21.2 °F 32% 30.29 in 10.0 mi WNW 8.1 mph - N/A   Clear
7:35 PM 48.2 °F - 21.2 °F 34% 30.29 in 10.0 mi WNW 5.8 mph - N/A   Clear
7:55 PM 46.4 °F 42.9 °F 19.4 °F 34% 30.30 in 10.0 mi WNW 6.9 mph - N/A   Clear
8:15 PM 46.4 °F 41.9 °F 21.2 °F 37% 30.30 in 10.0 mi WNW 9.2 mph - N/A   Clear
8:35 PM 44.6 °F 40.7 °F 21.2 °F 39% 30.31 in 10.0 mi NW 6.9 mph - N/A   Clear
8:55 PM 44.6 °F 41.4 °F 21.2 °F 39% 30.32 in 10.0 mi WNW 5.8 mph - N/A   Clear
9:15 PM 44.6 °F 42.2 °F 23.0 °F 43% 30.33 in 10.0 mi WNW 4.6 mph - N/A   Clear
9:35 PM 42.8 °F 40.1 °F 23.0 °F 46% 30.34 in 10.0 mi WNW 4.6 mph - N/A   Clear
9:55 PM 41.0 °F 38.0 °F 23.0 °F 49% 30.34 in 10.0 mi NW 4.6 mph - N/A   Clear
10:15 PM 41.0 °F 37.1 °F 26.6 °F 57% 30.34 in 10.0 mi NW 5.8 mph - N/A   Clear
10:35 PM 42.8 °F 38.6 °F 24.8 °F 49% 30.34 in 10.0 mi NW 6.9 mph - N/A   Clear
10:55 PM 42.8 °F 39.3 °F 23.0 °F 46% 30.35 in 10.0 mi NW 5.8 mph - N/A   Clear
11:15 PM 42.8 °F 40.1 °F 24.8 °F 49% 30.35 in 10.0 mi WNW 4.6 mph - N/A   Clear
11:35 PM 37.4 °F 33.8 °F 24.8 °F 60% 30.35 in 10.0 mi NW 4.6 mph - N/A   Clear
11:55 PM 37.4 °F 34.9 °F 26.6 °F 65% 30.35 in 10.0 mi NW 3.5 mph - N/A   Clear